De Kooy, Netherlands

11:55 PM CEST on August 24, 2016 (GMT +0200)
De Kooy Navy

Weather History for EHKD - December, 2013

Change the Weather History Date:

Thursday, December 12, 2013

  Actual Average Record
Temperature  
Mean Temperature 35 °F -  
Max Temperature 40 °F 42 °F 55 °F (2000)
Min Temperature 30 °F 34 °F 21 °F (2002)
Degree Days  
Heating Degree Days 30    
Moisture  
Dew Point 34 °F    
Average Humidity 96    
Maximum Humidity 100    
Minimum Humidity 82    
Precipitation  
Precipitation 0.00 in 0.09 in - ()
Sea Level Pressure  
Sea Level Pressure 30.30 in    
Wind  
Wind Speed 10 mph ()    
Max Wind Speed 15 mph    
Max Gust Speed -    
Visibility 2.5 miles    
Events Fog , Rain , Snow    
Averages and records for this station are not official NWS values.
T = Trace of Precipitation, MM = Missing Value Source: Averaged Metar Reports

Daily Weather History Graph

Daily Weather History Graph

Search for Another Location

Airport or City:

Trip Planner

Search our weather history database for the weather conditions in past years. The results will help you decide how hot, cold, wet, or windy it might be!

Date:

Astronomy

Dec. 12, 2013 Rise Set
Actual Time 8:44 AM CET 4:24 PM CET
Civil Twilight 8:02 AM CET 5:06 PM CET
Nautical Twilight 7:18 AM CET 5:50 PM CET
Astronomical Twilight 6:36 AM CET 6:33 PM CET
Moon 1:51 PM CET (12/12) 3:19 AM CET (12/12)
Length of Visible Light 9h 03m
Length of Day
7h 39m
Waxing Gibbous, 78% of the Moon is Illuminated
Dec 12
Waxing Gibbous
Dec 17
Full
Dec 25
Last Quarter
Jan 1
New
Jan 8
First Quarter

Hourly Weather History & Observations

Time (CET) Temp. Windchill Dew Point Humidity Pressure Visibility Wind Dir Wind Speed Gust Speed Precip Events Conditions
12:25 AM 32.0 °F 26.4 °F 32.0 °F 100% 30.42 in 0.3 mi SSE 5.8 mph - N/A Fog Light Freezing Fog
12:55 AM 32.0 °F 25.6 °F 32.0 °F 100% 30.42 in 0.2 mi SSE 6.9 mph - N/A Fog Light Freezing Fog
1:25 AM 32.0 °F 25.6 °F 32.0 °F 100% 30.42 in 0.2 mi South 6.9 mph - N/A Fog Light Freezing Fog
1:55 AM 32.0 °F 25.6 °F 32.0 °F 100% 30.39 in 0.3 mi SSE 6.9 mph - N/A Snow Light Snow Grains
2:25 AM 32.0 °F 24.2 °F 32.0 °F 100% 30.39 in - SSE 9.2 mph - N/A Fog Fog
2:55 AM 33.8 °F 26.4 °F 33.8 °F 100% 30.39 in - SSE 9.2 mph - N/A Fog Fog
3:25 AM 33.8 °F 25.8 °F 33.8 °F 100% 30.39 in 0.3 mi South 10.4 mph - N/A Fog Fog
3:55 AM 33.8 °F 26.4 °F 33.8 °F 100% 30.39 in 0.2 mi South 9.2 mph - N/A Rain , Snow Light Snow Grains
4:00 AM 34 °F - 34 °F 100% 30.39 in 0 mi South 8.9 mph - - Snow Light Snow
4:25 AM 33.8 °F 25.3 °F 33.8 °F 100% 30.36 in 0.2 mi South 11.5 mph - N/A Rain , Snow Light Snow
4:55 AM 33.8 °F 25.8 °F 33.8 °F 100% 30.36 in 0.3 mi South 10.4 mph - N/A   Overcast
5:25 AM 33.8 °F 25.8 °F 33.8 °F 100% 30.36 in 0.3 mi South 10.4 mph - N/A Fog Fog
5:55 AM 33.8 °F 25.8 °F 33.8 °F 100% 30.36 in 0.3 mi South 10.4 mph - N/A Fog Fog
6:25 AM 33.8 °F 26.4 °F 33.8 °F 100% 30.33 in 0.4 mi South 9.2 mph - N/A Fog Fog
6:33 AM 33.8 °F 25.8 °F 33.8 °F 100% 30.33 in 0.7 mi South 10.4 mph - N/A   Mist
6:40 AM 33.8 °F 26.4 °F 33.8 °F 100% 30.33 in 0.8 mi South 9.2 mph - N/A   Mist
6:45 AM 33.8 °F 26.4 °F 33.8 °F 100% 30.33 in 0.8 mi South 9.2 mph - N/A   Mist
6:55 AM 33.8 °F 25.8 °F 33.8 °F 100% 30.33 in 0.4 mi South 10.4 mph - N/A Fog Fog
7:00 AM 34 °F - 34 °F 99% 30.35 in 0 mi South 11.2 mph - - Fog Fog
7:08 AM 33.8 °F 25.8 °F 33.8 °F 100% 30.33 in 0.4 mi South 10.4 mph - N/A Fog Fog
7:25 AM 33.8 °F 25.3 °F 33.8 °F 100% 30.33 in 0.6 mi South 11.5 mph - N/A Fog Fog
7:29 AM 33.8 °F 25.8 °F 33.8 °F 100% 30.33 in 1.3 mi South 10.4 mph - N/A   Mostly Cloudy
7:33 AM 33.8 °F 25.8 °F 33.8 °F 100% 30.33 in 1.2 mi South 10.4 mph - N/A   Mostly Cloudy
7:47 AM 33.8 °F 25.8 °F 33.8 °F 100% 30.33 in 0.9 mi South 10.4 mph - N/A   Mist
7:55 AM 33.8 °F 25.8 °F 33.8 °F 100% 30.33 in 0.9 mi South 10.4 mph - N/A   Mist
8:18 AM 33.8 °F 24.8 °F 33.8 °F 100% 30.33 in - South 12.7 mph - N/A Fog Fog
8:25 AM 33.8 °F 24.8 °F 33.8 °F 100% 30.33 in 0.4 mi South 12.7 mph - N/A Fog Fog
8:32 AM 33.8 °F 24.8 °F 33.8 °F 100% 30.30 in 1.5 mi South 12.7 mph - N/A   Mist
8:35 AM 33.8 °F 24.8 °F 33.8 °F 100% 30.30 in 1.6 mi South 12.7 mph - N/A   Scattered Clouds
8:36 AM 33.8 °F 24.8 °F 33.8 °F 100% 30.30 in 1.5 mi South 12.7 mph - N/A   Partly Cloudy
8:40 AM 33.8 °F 24.3 °F 33.8 °F 100% 30.30 in 1.6 mi South 13.8 mph - N/A   Partly Cloudy
8:54 AM 33.8 °F 24.3 °F 33.8 °F 100% 30.33 in 1.3 mi South 13.8 mph - N/A   Mostly Cloudy
8:55 AM 33.8 °F 24.3 °F 33.8 °F 100% 30.30 in 1.6 mi South 13.8 mph - N/A   Scattered Clouds
8:57 AM 33.8 °F 24.3 °F 33.8 °F 100% 30.33 in 1.3 mi South 13.8 mph - N/A   Mostly Cloudy
8:58 AM 33.8 °F 23.9 °F 33.8 °F 100% 30.30 in 1.2 mi South 15.0 mph - N/A   Mostly Cloudy
9:05 AM 33.8 °F 24.3 °F 33.8 °F 100% 30.30 in 1.5 mi South 13.8 mph - N/A   Mostly Cloudy
9:08 AM 33.8 °F 24.8 °F 33.8 °F 100% 30.30 in 1.7 mi South 12.7 mph - N/A   Partly Cloudy
9:13 AM 33.8 °F 24.8 °F 33.8 °F 100% 30.33 in 1.8 mi South 12.7 mph - N/A   Partly Cloudy
9:14 AM 33.8 °F 24.8 °F 33.8 °F 100% 30.33 in 1.8 mi South 12.7 mph - N/A   Partly Cloudy
9:25 AM 33.8 °F 24.8 °F 33.8 °F 100% 30.33 in 1.9 mi South 12.7 mph - N/A   Partly Cloudy
9:31 AM 33.8 °F 25.3 °F 33.8 °F 100% 30.33 in - South 11.5 mph - N/A   Partly Cloudy
9:40 AM 33.8 °F 24.8 °F 33.8 °F 100% 30.30 in - South 12.7 mph - N/A   Mist
9:55 AM 33.8 °F 24.8 °F 33.8 °F 100% 30.30 in - South 12.7 mph - N/A   Mist
10:00 AM 35 °F - 34 °F 94% 30.33 in 3 mi South 11.2 mph - -   Mist
10:04 AM 35.6 °F 27.5 °F 33.8 °F 93% 30.30 in 3.1 mi South 11.5 mph - N/A   Mist
10:10 AM 35.6 °F 27.1 °F 33.8 °F 93% 30.33 in 3.1 mi South 12.7 mph - N/A   Mist
10:25 AM 35.6 °F 27.1 °F 33.8 °F 93% 30.33 in 3.1 mi South 12.7 mph - N/A   Mist
10:26 AM 35.6 °F 27.1 °F 33.8 °F 93% 30.33 in 3.1 mi South 12.7 mph - N/A   Mist
10:55 AM 37.4 °F 28.9 °F 35.6 °F 93% 30.33 in 3.7 mi South 13.8 mph - N/A   Mist
11:25 AM 37.4 °F 29.8 °F 35.6 °F 93% 30.30 in 4.3 mi South 11.5 mph - N/A   Mist
11:30 AM 37.4 °F 29.3 °F 35.6 °F 93% 30.30 in 5.0 mi South 12.7 mph - N/A   Mist
11:44 AM 37.4 °F 28.5 °F 35.6 °F 93% 30.30 in 5.0 mi South 15.0 mph - N/A   Mist
11:55 AM 39.2 °F 30.8 °F 35.6 °F 87% 30.30 in 5.6 mi South 15.0 mph - N/A   Mist
12:25 PM 39.2 °F 31.2 °F 35.6 °F 87% 30.30 in 6.2 mi SSW 13.8 mph - N/A   Partly Cloudy
12:55 PM 39.2 °F 30.8 °F 35.6 °F 87% 30.30 in 6.2 mi South 15.0 mph - N/A   Scattered Clouds
1:00 PM 39 °F - 35 °F 82% 30.30 in 6 mi South 13.4 mph - -   Partly Cloudy
1:25 PM 39.2 °F 31.6 °F 35.6 °F 87% 30.30 in 6.2 mi SSW 12.7 mph - N/A   Mostly Cloudy
1:55 PM 39.2 °F 31.6 °F 35.6 °F 87% 30.27 in 6.2 mi South 12.7 mph - N/A   Partly Cloudy
2:25 PM 39.2 °F 31.6 °F 35.6 °F 87% 30.27 in 6.2 mi SSW 12.7 mph - N/A   Unknown
2:55 PM 39.2 °F 31.2 °F 35.6 °F 87% 30.27 in 6.2 mi SSW 13.8 mph - N/A   Unknown
3:25 PM 39.2 °F 31.2 °F 35.6 °F 87% 30.27 in 5.6 mi South 13.8 mph - N/A   Mist
3:55 PM 37.4 °F 30.3 °F 35.6 °F 93% 30.27 in 5.0 mi SSW 10.4 mph - N/A   Mist
4:00 PM 38 °F - 35 °F 82% 30.27 in 5 mi SSW 8.9 mph - -   Mist
4:25 PM 37.4 °F 30.3 °F 33.8 °F 87% 30.27 in 5.0 mi SSW 10.4 mph - N/A   Scattered Clouds
4:28 PM 37.4 °F 30.3 °F 35.6 °F 93% 30.27 in 4.3 mi SSW 10.4 mph - N/A   Mostly Cloudy
4:32 PM 37.4 °F 30.8 °F 35.6 °F 93% 30.27 in 5.0 mi SSW 9.2 mph - N/A   Overcast
4:36 PM 37.4 °F 30.8 °F 33.8 °F 87% 30.27 in 4.3 mi SSW 9.2 mph - N/A   Overcast
4:40 PM 37.4 °F 30.3 °F 35.6 °F 93% 30.27 in 5.0 mi SSW 10.4 mph - N/A   Overcast
4:48 PM 37.4 °F 30.3 °F 35.6 °F 93% 30.27 in 4.3 mi SSW 10.4 mph - N/A   Overcast
4:55 PM 37.4 °F 30.3 °F 33.8 °F 87% 30.27 in 4.3 mi SSW 10.4 mph - N/A   Overcast
5:25 PM 37.4 °F 30.3 °F 33.8 °F 87% 30.27 in 4.3 mi SSW 10.4 mph - N/A   Mist
5:55 PM 37.4 °F 30.3 °F 33.8 °F 87% 30.24 in 4.3 mi South 10.4 mph - N/A   Overcast
6:25 PM 35.6 °F 28.0 °F 33.8 °F 93% 30.24 in 3.7 mi South 10.4 mph - N/A   Mist
6:55 PM 35.6 °F 28.0 °F 33.8 °F 93% 30.24 in 3.1 mi SSW 10.4 mph - N/A   Scattered Clouds
6:57 PM 35.6 °F 28.0 °F 33.8 °F 93% 30.24 in - SSW 10.4 mph - N/A   Mostly Cloudy
7:00 PM 35 °F - 34 °F 93% 30.26 in 3 mi SSW 11.2 mph - -   Mist
7:08 PM 35.6 °F 28.0 °F 33.8 °F 93% 30.24 in - SSW 10.4 mph - N/A   Mostly Cloudy
7:25 PM 35.6 °F 28.0 °F 33.8 °F 93% 30.24 in - SSW 10.4 mph - N/A   Overcast
7:41 PM 35.6 °F 28.0 °F 35.6 °F 100% 30.24 in - SSW 10.4 mph - N/A   Overcast
7:45 PM 35.6 °F 28.6 °F 35.6 °F 100% 30.24 in - SSW 9.2 mph - N/A   Overcast
7:55 PM 37.4 °F 30.3 °F 35.6 °F 93% 30.24 in - South 10.4 mph - N/A   Overcast
8:19 PM 37.4 °F 30.8 °F 35.6 °F 93% 30.24 in 2.2 mi SSW 9.2 mph - N/A   Overcast
8:25 PM 37.4 °F 30.8 °F 35.6 °F 93% 30.24 in 2.2 mi SSW 9.2 mph - N/A   Overcast
8:55 PM 37.4 °F 30.3 °F 37.4 °F 100% 30.24 in - South 10.4 mph - N/A   Overcast
9:25 PM 37.4 °F 30.3 °F 37.4 °F 100% 30.24 in 1.9 mi South 10.4 mph - N/A   Overcast
9:40 PM 37.4 °F 30.8 °F 35.6 °F 93% 30.24 in 1.9 mi South 9.2 mph - N/A   Overcast
9:55 PM 37.4 °F 30.8 °F 37.4 °F 100% 30.24 in 1.8 mi SSW 9.2 mph - N/A   Overcast
10:00 PM 38 °F - 37 °F 93% 30.25 in 2 mi SSW 8.9 mph - -   Mist
10:25 PM 37.4 °F 30.3 °F 37.4 °F 100% 30.24 in 1.8 mi SSW 10.4 mph - N/A   Overcast
10:55 PM 37.4 °F 30.3 °F 37.4 °F 100% 30.24 in 1.7 mi SSW 10.4 mph - N/A   Overcast
11:25 PM 37.4 °F 30.3 °F 37.4 °F 100% 30.24 in 1.6 mi SSW 10.4 mph - N/A   Overcast
11:55 PM 39.2 °F 32.5 °F 37.4 °F 93% 30.21 in 1.7 mi SSW 10.4 mph - N/A   Overcast